Temp
-15 -15 -15 -15 -15 -16 -16 -15 -15 -15 -16 -16 -17 -16 -16 -17 -17 -17 -17 -17 -17 -17 -17 -18 -18 -18 -18 -19 -19 -19 -20 -20 -20 -21 -21 -21 -22 -23
-15 -15 -16 -16 -16 -16 -16 -16 -16 -16 -16 -16 -17 -16 -17 -17 -17 -17 -17 -17 -17 -18 -18 -18 -18 -18 -19 -19 -20 -20 -20 -21 -21 -21 -22 -22 -23 -23
-16 -16 -16 -16 -16 -16 -15 -16 -16 -16 -16 -16 -16 -17 -17 -17 -17 -17 -17 -18 -18 -18 -18 -18 -19 -19 -19 -20 -20 -21 -20 -21 -21 -22 -22 -22 -23 -23
-16 -16 -16 -16 -15 -15 -15 -16 -16 -16 -16 -16 -17 -17 -17 -17 -17 -17 -18 -18 -18 -19 -19 -19 -19 -19 -20 -20 -21 -21 -21 -21 -21 -22 -22 -23 -24 -24
-16 -15 -15 -15 -16 -16 -16 -16 -16 -16 -17 -17 -17 -17 -17 -17 -18 -18 -18 -19 -19 -19 -19 -19 -20 -20 -21 -21 -21 -21 -21 -21 -22 -22 -23 -24 -24 -25
-15 -15 -15 -16 -16 -16 -16 -16 -16 -17 -17 -17 -17 -17 -18 -18 -18 -18 -19 -19 -19 -20 -20 -20 -20 -21 -21 -21 -21 -21 -21 -22 -23 -23 -24 -24 -25 -25
-16 -15 -15 -16 -16 -16 -16 -16 -16 -16 -17 -17 -17 -17 -18 -18 -18 -18 -19 -19 -19 -20 -20 -21 -21 -21 -21 -21 -21 -22 -22 -23 -23 -24 -25 -25 -25 -25
-16 -16 -16 -16 -16 -16 -16 -17 -17 -17 -17 -18 -18 -18 -18 -19 -19 -19 -19 -20 -20 -20 -21 -21 -21 -21 -21 -21 -22 -23 -23 -23 -24 -25 -25 -26 -25 -26
-16 -16 -16 -16 -17 -17 -17 -17 -17 -18 -18 -18 -19 -19 -19 -19 -19 -20 -20 -20 -20 -21 -21 -20 -21 -21 -21 -22 -23 -23 -24 -24 -25 -25 -26 -26 -26 -26
-16 -16 -17 -17 -17 -17 -17 -17 -18 -18 -19 -18 -18 -19 -19 -20 -20 -20 -20 -21 -21 -21 -21 -21 -21 -21 -21 -22 -23 -24 -25 -25 -25 -26 -27 -27 -27 -28
-16 -16 -17 -17 -17 -18 -17 -17 -17 -18 -19 -19 -18 -19 -20 -20 -20 -21 -21 -21 -21 -21 -21 -21 -21 -21 -21 -22 -24 -25 -25 -26 -27 -27 -27 -27 -28 -30
-17 -17 -17 -17 -18 -17 -18 -17 -17 -18 -18 -19 -19 -20 -20 -21 -20 -20 -20 -21 -21 -21 -21 -21 -21 -22 -22 -23 -24 -26 -26 -26 -27 -28 -28 -29 -30 -32
-17 -17 -17 -18 -18 -18 -18 -17 -18 -19 -19 -20 -20 -20 -20 -20 -20 -20 -20 -21 -21 -21 -21 -21 -22 -23 -23 -23 -25 -26 -27 -28 -28 -29 -29 -31 -32 -33
-18 -18 -18 -18 -19 -17 -18 -18 -19 -19 -20 -21 -20 -20 -20 -21 -20 -21 -21 -21 -21 -21 -22 -23 -23 -23 -24 -25 -26 -28 -29 -29 -29 -30 -31 -32 -33 -35
-17 -17 -17 -17 -18 -18 -18 -19 -19 -20 -20 -20 -20 -21 -21 -21 -21 -21 -21 -21 -21 -22 -23 -24 -24 -25 -26 -27 -27 -28 -29 -30 -30 -31 -32 -33 -34 -36
-17 -18 -18 -18 -18 -19 -20 -20 -20 -20 -20 -21 -21 -21 -21 -21 -21 -21 -21 -22 -22 -23 -24 -25 -26 -27 -27 -28 -28 -29 -30 -31 -32 -33 -34 -35 -36 -37
-18 -18 -18 -18 -19 -20 -19 -20 -20 -20 -21 -21 -22 -22 -22 -21 -22 -22 -22 -22 -24 -25 -26 -27 -27 -28 -28 -29 -30 -31 -32 -32 -33 -34 -35 -36 -37 -37
-18 -18 -19 -19 -20 -20 -20 -21 -20 -21 -21 -22 -22 -22 -22 -22 -22 -23 -24 -24 -25 -25 -26 -27 -28 -29 -29 -30 -31 -32 -33 -33 -34 -35 -36 -37 -37 -38
-19 -20 -20 -20 -20 -21 -21 -21 -22 -22 -22 -22 -22 -22 -22 -23 -23 -24 -24 -25 -25 -26 -27 -28 -29 -30 -30 -31 -33 -33 -34 -35 -35 -36 -37 -38 -38 -38
-20 -21 -21 -21 -21 -22 -22 -22 -22 -22 -22 -22 -22 -23 -23 -24 -24 -24 -25 -26 -27 -28 -29 -30 -31 -31 -32 -33 -33 -35 -35 -36 -36 -38 -39 -39 -39 -38
-21 -21 -21 -22 -22 -22 -22 -22 -22 -22 -22 -23 -23 -23 -24 -24 -25 -26 -27 -28 -29 -30 -30 -31 -32 -33 -34 -34 -35 -35 -36 -37 -38 -38 -39 -39 -39 -38
-22 -22 -22 -22 -22 -23 -22 -22 -23 -23 -24 -23 -24 -24 -25 -26 -27 -28 -29 -30 -30 -31 -32 -32 -33 -34 -35 -35 -36 -36 -37 -38 -40 -40 -40 -40 -39 -39
-23 -22 -22 -22 -22 -23 -24 -24 -24 -23 -24 -24 -25 -26 -27 -28 -29 -30 -30 -31 -31 -32 -33 -34 -34 -35 -35 -35 -36 -37 -38 -39 -40 -40 -40 -40 -39 -39
Height
5741 5741 5740 5738 5737 5736 5735 5733 5730 5730 5729 5728 5724 5721 5717 5714 5712 5709 5706 5702 5698 5694 5688 5683 5677 5671 5665 5659 5652 5646 5638 5631 5624 5616 5607 5598 5589 5580
5733 5733 5732 5730 5729 5727 5725 5722 5721 5720 5717 5715 5713 5710 5705 5703 5701 5697 5694 5690 5686 5681 5675 5669 5663 5656 5650 5643 5636 5630 5622 5614 5605 5596 5587 5578 5568 5559
5724 5723 5721 5719 5719 5718 5707 5712 5709 5709 5706 5705 5702 5698 5694 5691 5688 5684 5680 5676 5671 5666 5660 5653 5647 5640 5634 5626 5620 5612 5604 5595 5586 5576 5567 5557 5547 5539
5714 5712 5711 5710 5709 5704 5705 5704 5701 5698 5694 5692 5690 5685 5682 5678 5675 5671 5667 5662 5656 5651 5644 5638 5631 5624 5616 5609 5601 5592 5585 5575 5565 5556 5546 5537 5527 5518
5703 5700 5700 5697 5698 5696 5693 5693 5689 5686 5684 5680 5677 5674 5669 5665 5661 5656 5650 5646 5640 5634 5628 5621 5614 5606 5597 5590 5580 5572 5564 5554 5546 5535 5525 5516 5507 5497
5690 5688 5688 5688 5688 5687 5685 5682 5680 5676 5672 5668 5664 5660 5655 5651 5645 5640 5635 5628 5622 5615 5610 5602 5594 5586 5578 5568 5559 5550 5542 5533 5524 5515 5505 5496 5486 5476
5682 5681 5680 5679 5677 5676 5673 5670 5667 5663 5659 5655 5650 5645 5639 5634 5629 5624 5618 5611 5605 5597 5591 5583 5576 5567 5558 5548 5539 5529 5520 5512 5503 5494 5484 5474 5463 5451
5671 5669 5668 5666 5664 5662 5659 5656 5654 5649 5644 5640 5634 5629 5624 5619 5613 5607 5601 5594 5588 5581 5571 5563 5554 5547 5537 5528 5518 5508 5499 5491 5482 5472 5462 5451 5440 5428
5659 5657 5656 5654 5652 5649 5645 5642 5638 5634 5629 5625 5619 5614 5609 5603 5596 5590 5582 5576 5569 5560 5553 5545 5535 5529 5518 5508 5498 5487 5477 5470 5462 5452 5440 5429 5416 5404
5647 5645 5642 5639 5637 5634 5630 5626 5621 5617 5614 5608 5604 5598 5591 5585 5579 5572 5564 5557 5548 5540 5532 5525 5515 5509 5499 5488 5477 5469 5458 5448 5440 5431 5419 5406 5393 5382
5633 5630 5628 5624 5621 5619 5615 5612 5603 5600 5595 5591 5586 5580 5574 5567 5559 5552 5544 5537 5529 5520 5510 5503 5494 5488 5481 5469 5456 5447 5439 5428 5417 5408 5397 5385 5372 5362
5617 5615 5612 5608 5606 5603 5598 5593 5591 5582 5577 5572 5567 5561 5555 5549 5541 5533 5524 5516 5508 5501 5488 5484 5472 5459 5463 5451 5437 5425 5415 5405 5399 5387 5376 5365 5355 5346
5604 5601 5598 5595 5590 5587 5583 5577 5573 5570 5562 5556 5549 5543 5536 5529 5522 5514 5504 5496 5487 5477 5466 5458 5452 5440 5429 5432 5423 5408 5395 5387 5377 5368 5358 5348 5340 5332
5589 5585 5582 5578 5573 5569 5563 5560 5555 5549 5542 5536 5529 5523 5516 5508 5500 5492 5483 5474 5464 5455 5443 5432 5429 5418 5410 5404 5397 5390 5378 5368 5358 5349 5338 5332 5324 5318
5571 5567 5561 5561 5559 5554 5548 5541 5534 5528 5523 5516 5508 5501 5494 5486 5478 5470 5461 5451 5442 5430 5420 5410 5404 5397 5389 5382 5375 5368 5356 5350 5338 5331 5323 5314 5311 5306
5555 5549 5548 5544 5539 5532 5527 5521 5514 5508 5501 5495 5487 5480 5472 5464 5456 5447 5438 5428 5420 5408 5397 5388 5378 5372 5368 5360 5351 5347 5335 5327 5320 5313 5306 5301 5297 5294
5541 5536 5529 5524 5519 5514 5507 5500 5494 5487 5480 5473 5464 5457 5448 5440 5431 5421 5413 5404 5396 5387 5377 5366 5356 5348 5342 5337 5332 5322 5316 5308 5302 5298 5293 5290 5287 5285
5519 5514 5508 5502 5497 5491 5485 5479 5472 5465 5457 5449 5441 5432 5423 5414 5406 5396 5387 5380 5371 5362 5353 5343 5334 5327 5320 5315 5305 5304 5297 5291 5286 5282 5281 5278 5277 5276
5497 5492 5487 5481 5476 5470 5463 5457 5450 5443 5433 5424 5415 5406 5397 5388 5380 5371 5362 5353 5345 5337 5328 5318 5309 5301 5297 5295 5289 5278 5278 5274 5271 5269 5268 5268 5268 5269
5477 5471 5466 5460 5453 5447 5440 5432 5424 5416 5408 5399 5390 5381 5371 5362 5353 5344 5335 5326 5317 5309 5301 5292 5284 5277 5274 5271 5272 5263 5260 5259 5259 5260 5259 5259 5260 5260
5456 5451 5444 5437 5430 5422 5415 5407 5398 5389 5380 5372 5363 5354 5344 5334 5325 5316 5306 5297 5288 5280 5275 5268 5260 5254 5252 5250 5250 5248 5245 5245 5246 5249 5252 5252 5252 5253
5433 5427 5420 5413 5405 5397 5389 5381 5371 5362 5353 5344 5335 5325 5315 5305 5295 5287 5277 5269 5261 5254 5248 5243 5238 5234 5233 5232 5233 5233 5233 5235 5237 5240 5242 5244 5246 5248
5410 5403 5396 5387 5379 5369 5361 5353 5343 5334 5323 5314 5304 5294 5284 5275 5265 5257 5248 5241 5234 5228 5223 5220 5217 5215 5215 5216 5217 5218 5221 5225 5228 5233 5236 5238 5240 5243
Wind_Speed
34 36 36 36 39 39 40 41 46 45 43 42 43 43 48 48 49 51 52 53 55 56 58 60 62 62 63 64 65 67 69 69 72 74 76 75 74 73
38 41 41 39 41 40 44 46 45 46 46 48 46 48 50 50 52 53 54 56 58 59 61 63 66 64 65 66 68 69 70 72 75 77 78 77 75 75
43 45 45 41 39 44 47 56 45 49 45 47 49 52 54 55 54 56 57 59 61 62 63 66 67 67 67 68 69 70 74 77 79 80 80 79 78 79
49 50 49 51 49 46 49 47 49 46 50 51 52 55 58 58 57 58 60 61 63 64 64 69 70 70 69 69 71 76 78 80 82 83 82 81 80 81
51 53 49 50 42 37 50 51 47 46 53 55 56 57 59 60 60 61 63 64 64 66 68 71 71 69 70 73 78 80 81 83 84 85 83 81 83 84
37 43 46 42 42 47 48 52 52 52 55 57 58 60 61 62 63 63 66 67 67 69 72 74 73 72 76 79 83 84 84 84 84 83 82 83 85 87
38 38 43 44 48 50 52 54 56 56 58 60 61 64 64 66 66 67 68 69 70 72 73 77 76 78 81 85 86 85 85 84 84 82 82 86 89 91
41 43 45 45 45 49 54 55 55 57 60 62 65 66 67 68 69 69 70 72 74 76 79 81 82 82 86 86 86 86 85 84 82 82 85 88 91 93
46 46 46 48 50 52 55 57 59 62 64 65 68 69 70 69 70 71 72 75 79 79 79 79 84 85 86 86 86 85 84 83 83 84 87 90 92 91
46 48 49 50 54 56 57 59 63 68 67 67 70 70 70 70 73 76 79 79 78 80 83 85 87 87 88 87 86 83 83 84 85 86 89 91 89 80
49 50 53 56 57 58 54 64 72 60 63 71 71 74 74 76 76 74 79 82 81 84 86 87 89 90 88 85 83 83 82 85 88 88 91 90 78 69
52 55 57 58 59 57 61 58 63 70 81 77 77 78 79 79 81 81 87 86 85 88 90 91 92 91 84 82 83 83 86 88 88 90 89 79 68 60
56 58 59 59 60 63 61 72 68 78 81 83 76 78 83 85 86 84 85 86 89 91 95 93 89 86 87 84 82 84 87 87 89 88 78 67 59 52
57 58 60 61 67 67 68 74 77 75 73 77 82 83 86 82 83 87 90 93 95 95 92 89 87 86 87 86 85 84 85 87 87 76 67 58 51 44
58 57 55 56 64 71 73 73 74 78 82 81 80 81 85 87 88 90 92 94 95 92 88 87 87 87 87 87 87 86 87 86 75 65 58 52 44 39
65 54 60 69 73 71 74 79 82 82 79 80 82 84 86 88 91 94 94 92 90 88 88 88 87 88 88 88 89 87 84 73 65 57 50 43 38 35
64 68 74 75 72 74 79 78 75 76 78 80 82 85 88 90 90 90 90 90 88 88 89 88 89 90 91 91 89 82 70 64 58 50 43 37 33 31
68 73 74 75 76 77 76 78 79 83 84 86 89 91 91 90 90 90 90 91 93 93 93 94 94 94 93 87 80 70 65 57 49 42 36 31 29 28
70 72 73 73 72 73 76 79 83 88 92 94 97 97 94 92 93 94 97 98 98 98 97 96 94 90 85 77 69 63 54 47 41 35 30 29 26 25
70 74 79 81 78 79 81 84 87 92 96 98 98 96 95 97 99 101 101 101 99 96 93 89 85 82 77 70 60 52 47 39 35 25 25 24 26 25
76 81 81 81 84 87 88 92 96 98 98 97 99 101 102 103 103 103 101 98 94 90 86 82 78 74 66 57 48 42 38 34 30 25 24 21 23 22
78 81 82 85 88 92 97 99 98 97 99 102 104 105 105 105 102 99 95 91 87 83 78 73 67 61 54 46 41 37 32 28 20 23 24 21 21 20
84 89 90 91 92 92 94 96 99 102 104 105 107 105 100 96 94 91 87 84 80 77 73 67 61 55 48 41 34 29 26 26 30 29 27 23 21 20
Wind_Direction
261 259 258 255 266 273 273 275 275 279 282 283 289 292 290 286 287 289 291 294 295 299 301 305 306 303 302 301 299 299 299 298 300 302 305 304 302 300
260 262 264 264 267 269 270 275 276 277 277 280 287 288 286 289 289 289 290 292 294 297 300 302 304 302 301 299 298 298 298 300 301 304 306 305 304 304
260 263 269 269 269 271 266 271 270 276 280 288 291 289 290 290 289 288 289 290 293 296 299 301 303 300 299 297 298 298 300 302 302 304 306 306 307 306
273 277 275 262 273 268 271 269 274 272 285 286 286 289 290 289 287 287 288 291 292 295 298 300 301 298 297 297 299 299 302 302 302 305 306 307 306 305
269 271 274 271 265 281 265 272 274 280 282 285 289 290 289 288 288 289 290 291 293 295 295 301 301 297 297 298 299 302 302 303 303 305 306 306 305 305
276 266 262 266 266 275 274 277 279 281 284 285 286 289 289 288 288 289 289 291 293 295 297 303 303 298 298 300 302 304 303 302 303 305 305 305 305 307
271 270 271 267 273 276 276 276 279 282 283 285 287 290 290 288 288 289 290 292 294 295 298 302 301 299 301 302 302 302 302 302 303 303 305 305 307 311
274 273 274 272 274 274 275 276 278 283 284 286 289 291 291 290 290 291 293 295 296 295 298 300 301 303 301 302 302 301 302 302 302 303 305 307 311 314
276 276 276 275 276 279 279 278 281 284 287 290 291 290 291 291 292 294 294 296 297 299 300 301 301 303 303 303 301 301 300 301 303 305 307 309 313 315
276 277 277 277 279 280 281 283 283 283 284 290 293 292 293 294 295 295 296 296 295 297 302 302 303 303 303 302 301 301 301 302 303 306 309 313 316 313
273 275 277 277 279 281 285 285 277 273 282 292 291 292 293 296 296 292 297 299 296 299 300 302 301 301 303 302 302 301 301 302 304 308 312 315 313 308
274 274 274 277 278 279 279 275 269 275 291 292 290 292 295 293 292 292 295 297 298 299 299 300 301 301 302 302 301 301 302 304 307 311 314 313 309 306
276 277 278 280 281 276 267 278 277 281 283 285 292 288 292 293 291 294 295 296 297 298 299 300 300 301 301 302 301 301 302 305 309 312 311 309 306 301
276 277 279 280 272 264 270 280 286 287 290 289 290 290 294 293 291 293 294 297 298 298 298 299 301 301 301 301 301 301 304 307 310 309 307 306 300 295
280 276 270 271 276 282 284 286 288 286 285 289 290 289 291 292 291 292 295 297 298 298 298 299 300 300 300 300 300 302 305 307 307 305 304 301 295 287
277 264 268 285 284 285 284 281 281 283 285 288 291 290 292 293 293 294 295 296 296 297 298 299 298 298 298 299 301 304 305 305 303 302 298 295 290 280
277 277 280 282 280 278 278 280 286 287 289 291 292 293 294 295 294 294 294 295 297 298 297 297 297 297 298 300 301 303 302 301 300 297 293 289 282 274
275 275 277 277 276 276 279 283 289 289 290 292 295 297 297 296 296 296 296 297 298 298 297 297 297 297 298 299 301 301 301 298 295 290 285 280 275 267
276 275 274 279 286 288 289 288 288 290 292 293 295 297 297 296 296 297 297 297 297 297 296 296 295 296 297 298 297 298 295 291 285 279 275 272 265 259
277 284 286 289 288 287 288 288 290 293 295 295 295 295 295 296 296 296 296 295 295 296 296 295 295 296 296 297 297 290 287 281 274 261 256 258 257 250
283 284 286 286 287 288 289 290 292 294 294 295 295 296 296 296 295 295 296 296 296 295 295 294 293 294 294 294 293 284 276 268 261 251 245 244 248 243
285 285 286 288 289 290 291 292 293 294 295 296 295 295 295 295 296 296 296 295 295 294 294 293 293 293 292 290 286 276 263 250 228 241 241 245 239 237
288 288 288 289 290 291 291 293 294 294 294 294 293 295 296 296 296 295 295 294 293 292 291 290 288 287 286 284 276 261 244 228 217 224 244 244 238 227